Weather History for KPIE - January, 2000

Change the Weather History Date:

Tuesday, January 25, 2000

  Actual Average Record
Temperature  
Mean Temperature 52 °F -  
Max Temperature 55 °F 70 °F 88 °F (1984)
Min Temperature 48 °F 54 °F 37 °F (2003)
Degree Days  
Heating Degree Days 14    
Growing Degree Days 2 (Base 50)    
Moisture  
Dew Point 40 °F    
Average Humidity 63    
Maximum Humidity 74    
Minimum Humidity 55    
Precipitation  
Precipitation 0.00 in - - ()
Sea Level Pressure  
Sea Level Pressure 29.90 in    
Wind  
Wind Speed 15 mph (WNW)    
Max Wind Speed 21 mph    
Max Gust Speed 28 mph    
Visibility 10 miles    
Events      
Averages and records for this station are not official NWS values.
T = Trace of Precipitation, MM = Missing Value Source: NWS Daily Summary

Daily Weather History Graph

Daily Weather History Graph

Search for Another Location

Airport or City:

Trip Planner

Search our weather history database for the weather conditions in past years. The results will help you decide how hot, cold, wet, or windy it might be!

Date:

Astronomy

Jan. 25, 2000 Rise Set
Actual Time 7:21 AM EST 6:05 PM EST
Civil Twilight 6:56 AM EST 6:30 PM EST
Nautical Twilight 6:27 AM EST 6:58 PM EST
Astronomical Twilight 5:59 AM EST 7:26 PM EST
Moon 10:56 PM EST (1/25) 10:38 AM EST (1/25)
Length of Visible Light 11h 33m
Length of Day
10h 44m
Waning Gibbous, 76% of the Moon is Illuminated
Jan 25
Waning Gibbous
Jan 28
Last Quarter
Feb 5
New
Feb 12
First Quarter
Feb 19
Full

Hourly Weather History & Observations

Time (EST) Temp. Dew Point Humidity Pressure Visibility Wind Dir Wind Speed Gust Speed Precip Events Conditions
12:53 AM 51.1 °F 41.0 °F 68% 29.87 in 10.0 mi NNW 16.1 mph - N/A   Overcast
1:53 AM 51.1 °F 41.0 °F 68% 29.87 in 10.0 mi NW 15.0 mph - N/A   Overcast
2:53 AM 51.1 °F 39.9 °F 66% 29.88 in 10.0 mi NW 16.1 mph 24.2 mph N/A   Overcast
3:53 AM 48.9 °F 41.0 °F 74% 29.88 in 10.0 mi NNW 12.7 mph - N/A   Mostly Cloudy
4:53 AM 48.9 °F 41.0 °F 74% 29.88 in 10.0 mi NNW 9.2 mph - N/A   Mostly Cloudy
5:53 AM 50.0 °F 39.0 °F 66% 29.88 in 10.0 mi NW 11.5 mph - N/A   Clear
6:53 AM 51.1 °F 41.0 °F 68% 29.90 in 10.0 mi WNW 13.8 mph - N/A   Mostly Cloudy
7:53 AM 52.0 °F 39.9 °F 63% 29.90 in 10.0 mi WNW 13.8 mph - N/A   Partly Cloudy
8:53 AM 53.1 °F 39.9 °F 61% 29.91 in 10.0 mi WNW 16.1 mph 20.7 mph N/A   Mostly Cloudy
9:53 AM 54.0 °F 39.9 °F 59% 29.93 in 10.0 mi WNW 18.4 mph 25.3 mph N/A   Mostly Cloudy
10:53 AM 54.0 °F 41.0 °F 62% 29.93 in 10.0 mi NW 19.6 mph 26.5 mph N/A   Mostly Cloudy
11:53 AM 54.0 °F 39.0 °F 57% 29.93 in 10.0 mi WNW 15.0 mph 21.9 mph N/A   Partly Cloudy
12:53 PM 54.0 °F 39.0 °F 57% 29.91 in 10.0 mi WNW 17.3 mph - N/A   Clear
1:53 PM 53.1 °F 37.0 °F 55% 29.88 in 10.0 mi WNW 15.0 mph - N/A   Clear
2:53 PM 53.1 °F 37.9 °F 57% 29.88 in 10.0 mi WNW 17.3 mph 24.2 mph N/A   Clear
3:53 PM 55.9 °F 42.1 °F 60% 29.87 in 10.0 mi WNW 20.7 mph 27.6 mph N/A   Scattered Clouds
4:53 PM 55.0 °F 42.1 °F 62% 29.87 in 10.0 mi WNW 17.3 mph - N/A   Clear
5:53 PM 53.1 °F 41.0 °F 64% 29.88 in 10.0 mi West 10.4 mph 18.4 mph N/A   Clear
6:53 PM 53.1 °F 41.0 °F 64% 29.89 in 10.0 mi WNW 11.5 mph - N/A   Clear
7:53 PM 53.1 °F 41.0 °F 64% 29.90 in 10.0 mi West 11.5 mph - N/A   Clear
8:53 PM 53.1 °F 41.0 °F 64% 29.91 in 10.0 mi West 11.5 mph - N/A   Partly Cloudy
9:53 PM 54.0 °F 39.9 °F 59% 29.93 in 10.0 mi West 12.7 mph - N/A   Clear
10:53 PM 54.0 °F 41.0 °F 62% 29.93 in 10.0 mi WNW 16.1 mph - N/A   Scattered Clouds
11:53 PM 54.0 °F 39.9 °F 59% 29.93 in 10.0 mi WNW 18.4 mph 24.2 mph N/A   Mostly Cloudy